Weather WX

World > North America > United States > Ohio

Sinking Spring, Ohio Regional Weather

Lat: 39.08N, Lon: 83.39W
Wx Zone: OHZ080
Warning FLW WEATHER ALERT - (More Info. Click Here) Warning
Feedback

Sinking Spring, OH Regional Weather

Expires:201906241800;;009999
ASUS41 KCLE 241712
RWRCLE
OHIO REGIONAL WEATHER ROUNDUP
NATIONAL WEATHER SERVICE WILMINGTON, OH
100 PM EDT MON JUN 24 2019

NOTE: "FAIR" INDICATES FEW OR NO CLOUDS BELOW 12,000 FEET WITH NO
SIGNIFICANT WEATHER AND/OR OBSTRUCTIONS TO VISIBILITY.


OHZ042-051>053-060>062-070>072-077>081-241800-
  SOUTHWEST OHIO
  
CITY           SKY/WX    TMP DP  RH WIND       PRES   REMARKS
CINC-COVINGTON CLOUDY    76  67  73 S12       29.80F                  
CINC-LUNKEN    PTSUNNY   78  68  71 SW12G21   29.79F                  
HAMILTON       PTSUNNY   76  68  76 SW8       29.79F                  
DAYTON         CLOUDY    78  64  61 SW17      29.79F                  
WRIGHT-PAT AFB PTSUNNY   78  67  69 SW8       29.77F                  
DAYTON GENERAL CLOUDY    79  67  66 SW12G20   29.79F                  
WILMINGTON     FAIR      80  68  66 SW13      29.79F                  
$$


SKY/WX - Weather  TMP - Temperature  DP - Dew Point  RH - Relative Humidity
WIND - Wind Direction/Speed PRES - Barometric Pressure VSB - Visibility
WCI - Wind Chill Index E13G22 Wind - East Wind 13 mph/Gusts of 22 mph